GAOFEN-1 02

Last updated on Sat Feb 08 2025 00:02:27 GMT+0000 (Coordinated Universal Time)

1 43259U 18031A 25038.79410498 .00001873 00000+0 27506-3 0 9997 2 43259 97.7908 104.5165 0005957 138.5151 221.6512 14.76626162369746
UTC large
Height (km)
Speed (km/s)
/
Latitude / Longitude
Inclination (degrees)
Orbital Period (minutes)
Azimuth
Elevation
Range (km)
Doppler Factor

Next 0 passes for location: London (51.5072 / 0.1276)

Sorry there are no passes over London.